Location: ??????????
(44.2167°N, 135.5333°E)
Time: 15:18:00
(UTC+00:00)

Celestis-02/Orion 38 - Pass Details

Date: 15 June 2025
Orbit: 772 x 862 km, 108.0° (Epoch: 15 July)

Event Time Altitude Azimuth Distance (km) Brightness Sun altitude
Exits shadow 16:51:36 11° 150° (SSE) 2,243 6.6 -17.7°
Maximum altitude 16:56:28 88° 63° (ENE) 780 4.5 -17.2°
Drops below altitude 10° 17:01:33 10° 333° (NNW) 2,337 7.5 -16.8°
Sets 17:03:52 0° 334° (NNW) 3,276 8.3 -16.6°
